Location: Ingoldesthorpe
(52.8667°N, 0.5167°E)
Time: 16:20:38
(UTC+00:00)

Cosmos 405 Rocket - Pass Details

Date: 19 May 2025
Orbit: 414 x 448 km, 81.2° (Epoch: 13 June)

Event Time Altitude Azimuth Distance (km) Brightness Sun altitude
Rises 21:27:38 0° 358° (N) 2,476 7.2 -10.5°
Reaches altitude 10° 21:30:11 10° 17° (NNE) 1,591 5.7 -10.7°
Maximum altitude 21:32:43 19° 64° (ENE) 1,141 4.4 -11.0°
Enters shadow 21:34:56 11° 107° (ESE) 1,481 4.6 -11.1°
